THORAD DELTA 1 DEB, 8169

Orbit data source: Space-Track

THORAD DELTA 1 DEB, 8169 is space debris in SSO originally from a launch on Fri, 15 Nov 1974 UTC launched from the Air Force Western Test Range (AFWTR). Debris objects in space refer to the collection of defunct objects orbiting the Earth. Examples of debris include non-operational satellites, rocket bodies, and fragments generated from explosions, collisions, or faulty payload assembly.

Loading next visibility...
Identifier
8169, 1974-089AK
Orbit
SSO
Last TLE update
1 day ago
Origin
Manufacturer
Unknown
Mission
Spacecraft
Bus & Motor
Unknown
Mass
Unknown
Launch date (UTC)
1974-11-15 (51 years ago)
Launch vehicle
Unknown
Launch site
Air Force Western Test Range (AFWTR)
Object type
Payload
Rocket body
Debris
Shape & HBR
Unknown
Radar Cross Section
Small (<0.1 m²)

Expand to show TLE details & history

TLE from 1 day ago
0 THORAD DELTA 1 DEB
1 08169U 74089AK  25166.37368439  .00002446  00000-0  87658-2 0  9997
2 08169 102.5247 103.9272 0130270 158.5695 323.9143 12.93476239353331
Epoch: 2025-06-15T08:58Z
TLE epoch observation values (Epoch: 2025-06-15T08:58:06.331Z)
Latitude
56.35337°
Longitude
-95.10393°
Altitude
1,216.689 km
Speed
7.289 km/s
True Right ascension
20h 13m 17s
True Declination
56° 12' 15"
Sunlit
Object was in daylight at epoch
Visualization orbit readout
Latitude
15.84798°
Longitude
-109.57584°
Altitude
1,190.634 km
Speed
7.306 km/s
Apparent Right ascension
16h 34m 50s
Apparent Declination
-16° 08' 07"
Sunlit
Object is in full shadow
Visualization observer readout
Local Sidereal Time
23:41:10
Azimuth
267.686° W
Elevation
-22.869°
Doppler factor
1
Orbital elements
Apogee altitude
1,385.127 km
Perigee altitude
1,185.464 km
Semi-major axis
7,663.432 km
Eccentricity
0.01303
Inclination
102.5247°
RAAN
103.9272°
Arg. of periapsis
158.5695°
True anomaly
Unknown
Mean anomaly
323.9143°
Eccentric anomaly
Unknown
Mean motion
3.23525 °/min
Orbital period
111.27 mins
BSTAR
0.0087658
Loading maneuver chart data...
Loading SW <> Apogee altitude chart data...
Loading historical data...
Loading historical data...
Loading historical data...
Loading historical data...
Loading historical data...
Loading historical data...
Loading historical data...

THORAD DELTA 1 DEB Visibility forecast

Observer location: undefined°, undefined°

Span
Click to sort rows by Start time (UTC) header in descending order
Start Az.
Max El. time (UTC)
Max El. Az.
Max El.
End time (UTC)
End Az.
10 mins2025-06-16 17:55:26.553Z100.539° ESE2025-06-16 18:00:26.553Z58.173° ENE21.688°2025-06-16 18:05:26.553Z11.455° NNE
14 mins2025-06-16 19:42:26.553Z165.871° S2025-06-16 19:49:26.553Z267.528° W44.403°2025-06-16 19:56:26.553Z338.816° N
5 mins2025-06-16 21:37:26.553Z251.953° W2025-06-16 21:39:26.553Z268.226° W13.205°2025-06-16 21:42:26.553Z292.242° WNW
8 mins2025-06-17 07:25:26.553Z61.245° ENE2025-06-17 07:28:26.553Z90.105° ESE18.079°2025-06-17 07:33:26.553Z136.714° SSE
12 mins2025-06-17 09:13:26.553Z12.867° NNE2025-06-17 09:18:26.553Z315.311° NNW43.623°2025-06-17 09:25:26.553Z208.982° SW
5 mins2025-06-17 11:04:26.553Z333.008° NNW2025-06-17 11:06:26.553Z315.146° NNW14.155°2025-06-17 11:09:26.553Z287.933° WNW
|